Hourly Weather Inverness

Today, 11 August, Tuesday

Time Temperature Precipitation Wind Pressure Humidity
00:00 +14°C° 0 mm 1 mps 761 mmHg 95%
01:00 +14°C° 0 mm 1 mps 761 mmHg 95%
02:00 +14°C° 0 mm 1 mps 761 mmHg 96%
03:00 +13°C° 0 mm 0 mps 760 mmHg 96%
04:00 +13°C° 0 mm 0 mps 760 mmHg 95%
05:00 +14°C° 0 mm 0 mps 760 mmHg 94%
06:00 +14°C° 0 mm 0 mps 760 mmHg 93%
07:00 +16°C° 0 mm 1 mps 760 mmHg 89%
08:00 +18°C° 0 mm 1 mps 760 mmHg 86%
09:00 +18°C° 0 mm 2 mps 760 mmHg 82%
10:00 +19°C° 0 mm 2 mps 760 mmHg 80%
11:00 +20°C° 0 mm 2 mps 759 mmHg 78%
12:00 +20°C° 0 mm 2 mps 759 mmHg 76%
13:00 +21°C° 0.1 mm 2 mps 759 mmHg 76%
14:00 +22°C° 0.1 mm 1 mps 759 mmHg 76%
15:00 +23°C° 0.1 mm 1 mps 758 mmHg 76%
16:00 +23°C° 0.2 mm 1 mps 758 mmHg 78%
17:00 +23°C° 0.2 mm 1 mps 758 mmHg 81%
18:00 +22°C° 0.2 mm 1 mps 758 mmHg 83%
19:00 +21°C° 0.2 mm 1 mps 758 mmHg 87%
20:00 +20°C° 0.2 mm 1 mps 758 mmHg 91%
21:00 +17°C° 0.2 mm 0 mps 758 mmHg 95%
22:00 +17°C° 0.5 mm 0 mps 758 mmHg 96%
23:00 +17°C° 0.5 mm 0 mps 758 mmHg 96%

Tomorrow, 12 August, Wednesday

Time Temperature Precipitation Wind Pressure Humidity
00:00 +16°C° 0.5 mm 0 mps 758 mmHg 96%
01:00 +16°C° 1.2 mm 0 mps 758 mmHg 97%
02:00 +16°C° 1.2 mm 0 mps 758 mmHg 97%
03:00 +16°C° 1.2 mm 0 mps 758 mmHg 98%
04:00 +17°C° 0.9 mm 0 mps 758 mmHg 98%
05:00 +17°C° 0.9 mm 0 mps 757 mmHg 98%
06:00 +19°C° 0.9 mm 1 mps 757 mmHg 99%
07:00 +19°C° 0.4 mm 1 mps 757 mmHg 97%
08:00 +20°C° 0.4 mm 1 mps 757 mmHg 95%
09:00 +21°C° 0.4 mm 1 mps 757 mmHg 94%
10:00 +21°C° 0 mm 1 mps 757 mmHg 91%
11:00 +22°C° 0 mm 1 mps 757 mmHg 89%
12:00 +22°C° 0 mm 1 mps 757 mmHg 87%
13:00 +22°C° 0 mm 1 mps 757 mmHg 85%
14:00 +23°C° 0 mm 1 mps 757 mmHg 83%
15:00 +23°C° 0 mm 1 mps 757 mmHg 80%
16:00 +23°C° 0 mm 1 mps 757 mmHg 83%
17:00 +22°C° 0 mm 1 mps 757 mmHg 85%
18:00 +22°C° 0 mm 1 mps 757 mmHg 87%
19:00 +21°C° 0 mm 1 mps 758 mmHg 90%
20:00 +20°C° 0 mm 1 mps 758 mmHg 94%
21:00 +19°C° 0 mm 1 mps 758 mmHg 97%
22:00 +19°C° 0 mm 1 mps 758 mmHg 97%
23:00 +19°C° 0 mm 1 mps 759 mmHg 97%

Day after tomorrow, 13 August, Thursday

Time Temperature Precipitation Wind Pressure Humidity
00:00 +19°C° 0 mm 1 mps 759 mmHg 97%
01:00 +18°C° 0 mm 1 mps 759 mmHg 97%
02:00 +18°C° 0 mm 1 mps 758 mmHg 97%
03:00 +18°C° 0 mm 1 mps 758 mmHg 97%
04:00 +18°C° 0 mm 1 mps 758 mmHg 96%
05:00 +17°C° 0 mm 2 mps 759 mmHg 96%
06:00 +16°C° 0 mm 2 mps 759 mmHg 96%
07:00 +17°C° 0 mm 2 mps 759 mmHg 94%
08:00 +17°C° 0 mm 2 mps 759 mmHg 93%
09:00 +17°C° 0 mm 2 mps 759 mmHg 92%
10:00 +17°C° 0 mm 2 mps 759 mmHg 89%
11:00 +18°C° 0 mm 2 mps 759 mmHg 87%
12:00 +18°C° 0 mm 2 mps 759 mmHg 84%
13:00 +18°C° 0 mm 2 mps 759 mmHg 84%
14:00 +18°C° 0 mm 2 mps 759 mmHg 83%
15:00 +18°C° 0 mm 2 mps 759 mmHg 82%
16:00 +18°C° 0 mm 2 mps 759 mmHg 85%
17:00 +17°C° 0 mm 2 mps 759 mmHg 87%
18:00 +17°C° 0 mm 2 mps 759 mmHg 89%
19:00 +17°C° 0 mm 2 mps 759 mmHg 90%
20:00 +16°C° 0 mm 2 mps 759 mmHg 92%
21:00 +15°C° 0 mm 2 mps 759 mmHg 94%
22:00 +15°C° 0 mm 2 mps 759 mmHg 94%
23:00 +15°C° 0 mm 2 mps 759 mmHg 95%

14 August, Friday

Time Temperature Precipitation Wind Pressure Humidity
00:00 +14°C° 0 mm 2 mps 759 mmHg 95%
01:00 +14°C° 0 mm 2 mps 759 mmHg 95%
02:00 +14°C° 0 mm 1 mps 759 mmHg 95%
03:00 +14°C° 0 mm 1 mps 759 mmHg 95%
04:00 +14°C° 0 mm 1 mps 758 mmHg 94%
05:00 +14°C° 0 mm 1 mps 758 mmHg 94%
06:00 +14°C° 0 mm 2 mps 758 mmHg 94%
07:00 +15°C° 0 mm 1 mps 758 mmHg 92%
08:00 +15°C° 0 mm 1 mps 758 mmHg 90%
09:00 +16°C° 0 mm 1 mps 758 mmHg 88%
10:00 +17°C° 0 mm 2 mps 758 mmHg 85%
11:00 +18°C° 0 mm 2 mps 758 mmHg 82%
12:00 +19°C° 0 mm 2 mps 758 mmHg 79%
13:00 +19°C° 0 mm 2 mps 758 mmHg 79%
14:00 +19°C° 0 mm 2 mps 758 mmHg 78%
15:00 +20°C° 0 mm 2 mps 758 mmHg 77%
16:00 +19°C° 0 mm 2 mps 758 mmHg 80%
17:00 +19°C° 0 mm 2 mps 758 mmHg 83%
18:00 +18°C° 0 mm 2 mps 758 mmHg 86%
19:00 +18°C° 0 mm 1 mps 758 mmHg 90%
20:00 +16°C° 0 mm 1 mps 758 mmHg 94%
21:00 +14°C° 0 mm 0 mps 759 mmHg 98%
22:00 +14°C° 0 mm 0 mps 759 mmHg 98%
23:00 +14°C° 0 mm 0 mps 759 mmHg 97%

15 August, Saturday

Time Temperature Precipitation Wind Pressure Humidity
00:00 +14°C° 0 mm 0 mps 759 mmHg 97%
01:00 +14°C° 0 mm 0 mps 759 mmHg 97%
02:00 +14°C° 0 mm 0 mps 759 mmHg 97%
03:00 +14°C° 0 mm 0 mps 759 mmHg 97%
04:00 +15°C° 0 mm 0 mps 758 mmHg 96%
05:00 +15°C° 0 mm 0 mps 758 mmHg 96%
06:00 +15°C° 0 mm 0 mps 758 mmHg 95%
07:00 +16°C° 0 mm 0 mps 758 mmHg 92%
08:00 +19°C° 0 mm 1 mps 758 mmHg 89%
09:00 +20°C° 0 mm 1 mps 759 mmHg 86%
10:00 +21°C° 0 mm 1 mps 759 mmHg 81%
11:00 +22°C° 0 mm 1 mps 759 mmHg 76%
12:00 +23°C° 0 mm 2 mps 759 mmHg 71%
13:00 +23°C° 0 mm 2 mps 758 mmHg 71%
14:00 +23°C° 0 mm 2 mps 758 mmHg 72%
15:00 +22°C° 0 mm 3 mps 758 mmHg 72%
16:00 +21°C° 0 mm 2 mps 758 mmHg 77%
17:00 +20°C° 0 mm 2 mps 758 mmHg 82%
18:00 +19°C° 0 mm 2 mps 758 mmHg 87%
19:00 +18°C° 0 mm 2 mps 758 mmHg 90%
20:00 +18°C° 0 mm 1 mps 758 mmHg 92%
21:00 +16°C° 0 mm 1 mps 758 mmHg 95%
22:00 +16°C° 0 mm 1 mps 758 mmHg 95%
23:00 +16°C° 0 mm 1 mps 758 mmHg 95%

16 August, Sunday

Time Temperature Precipitation Wind Pressure Humidity
00:00 +15°C° 0 mm 0 mps 758 mmHg 94%
01:00 +15°C° 0 mm 0 mps 758 mmHg 95%
02:00 +15°C° 0 mm 0 mps 758 mmHg 95%
03:00 +15°C° 0 mm 0 mps 758 mmHg 95%
04:00 +15°C° 0 mm 0 mps 758 mmHg 94%
05:00 +15°C° 0 mm 0 mps 758 mmHg 94%
06:00 +15°C° 0 mm 0 mps 758 mmHg 93%
07:00 +16°C° 0 mm 0 mps 758 mmHg 88%
08:00 +19°C° 0 mm 1 mps 758 mmHg 83%
09:00 +20°C° 0 mm 1 mps 758 mmHg 78%
10:00 +21°C° 0 mm 1 mps 758 mmHg 75%
11:00 +22°C° 0 mm 1 mps 758 mmHg 71%
12:00 +23°C° 0 mm 1 mps 758 mmHg 68%
13:00 +23°C° 0 mm 2 mps 757 mmHg 68%
14:00 +23°C° 0 mm 2 mps 757 mmHg 67%
15:00 +23°C° 0 mm 2 mps 757 mmHg 67%
16:00 +21°C° 0.1 mm 2 mps 757 mmHg 71%
17:00 +20°C° 0.1 mm 2 mps 757 mmHg 74%
18:00 +19°C° 0.1 mm 2 mps 756 mmHg 78%
19:00 +18°C° 0 mm 2 mps 756 mmHg 83%
20:00 +16°C° 0 mm 1 mps 756 mmHg 87%
21:00 +15°C° 0 mm 1 mps 756 mmHg 92%
22:00 +15°C° 0 mm 1 mps 756 mmHg 93%
23:00 +13°C° 0 mm 0 mps 756 mmHg 93%
Show more